Boulder Muni, Boulder, CO, CO

3:33 PM MDT on October 18, 2017 (GMT -0600)
Boulder Muni, Boulder, CO

Weather History for KBDU - January, 2014

Change the Weather History Date:

Tuesday, January 28, 2014

  Actual Average Record
Temperature  
Mean Temperature 16 °F -  
Max Temperature 28 °F - 63 °F (2016)
Min Temperature 3 °F - 3 °F (2014)
Degree Days  
Heating Degree Days 50    
Month to date heating degree days  
Cooling Degree Days 0    
Month to date cooling degree days  
Moisture  
Dew Point 10 °F    
Average Humidity 82    
Maximum Humidity 100    
Minimum Humidity 51    
Precipitation  
Precipitation 0.00 in - 0.00 in (2017)
Sea Level Pressure  
Sea Level Pressure 30.08 in    
Wind  
Wind Speed 1 mph (NE)    
Max Wind Speed 9 mph    
Max Gust Speed -    
Visibility 8 miles    
Events Snow    
T = Trace of Precipitation, MM = Missing Value Source: NWS Daily Summary

Daily Weather History Graph

Daily Weather History Graph

Search for Another Location

Airport or City:

Trip Planner

Search our weather history database for the weather conditions in past years. The results will help you decide how hot, cold, wet, or windy it might be!

Date:

Astronomy

Jan. 28, 2014 Rise Set
Actual Time 7:12 AM MST 5:15 PM MST
Civil Twilight 6:44 AM MST 5:44 PM MST
Nautical Twilight 6:11 AM MST 6:16 PM MST
Astronomical Twilight 5:39 AM MST 6:48 PM MST
Moon 4:57 AM MST (1/28) 3:08 PM MST (1/28)
Length of Visible Light 11h 00m
Length of Day
10h 02m
Waning Crescent, 7% of the Moon is Illuminated
Jan 28
Waning Crescent
Jan 30
New
Feb 6
First Quarter
Feb 14
Full
Feb 22
Last Quarter

Hourly Weather History & Observations

Time (MST) Temp. Windchill Dew Point Humidity Pressure Visibility Wind Dir Wind Speed Gust Speed Precip Events Conditions
12:16 AM 12.2 °F - 10.4 °F 92% 30.15 in 5.0 mi Calm Calm - N/A Snow Light Snow
12:36 AM 12.2 °F - 10.4 °F 92% 30.14 in 4.0 mi Calm Calm - N/A Snow Light Snow
12:56 AM 12.2 °F - 10.4 °F 92% 30.14 in 1.8 mi Calm Calm - N/A Snow Light Snow
1:16 AM 12.2 °F - 10.4 °F 92% 30.14 in 2.5 mi Calm Calm - N/A Snow Light Snow
1:36 AM 10.4 °F - 10.4 °F 100% 30.14 in 7.0 mi Calm Calm - N/A   Scattered Clouds
1:56 AM 10.4 °F - 8.6 °F 92% 30.14 in 7.0 mi Calm Calm - N/A Snow Light Snow
2:16 AM 10.4 °F - 10.4 °F 100% 30.15 in 7.0 mi Calm Calm - N/A   Clear
2:36 AM 10.4 °F - 8.6 °F 92% 30.15 in 7.0 mi Calm Calm - N/A   Clear
2:56 AM 10.4 °F - 8.6 °F 92% 30.14 in 10.0 mi Calm Calm - N/A   Clear
3:16 AM 8.6 °F - 8.6 °F 100% 30.14 in 5.0 mi Calm Calm - N/A Snow Light Snow
3:36 AM 5.0 °F - 3.2 °F 92% 30.15 in 0.5 mi Calm Calm - N/A Snow Light Snow
3:56 AM 6.8 °F - 5.0 °F 92% 30.15 in 5.0 mi Calm Calm - N/A   Clear
4:16 AM 6.8 °F - 5.0 °F 92% 30.15 in 7.0 mi Calm Calm - N/A   Clear
4:36 AM 6.8 °F - 5.0 °F 92% 30.14 in 10.0 mi Calm Calm - N/A   Clear
4:56 AM 6.8 °F - 5.0 °F 92% 30.15 in 3.0 mi Calm Calm - N/A Snow Light Snow
5:16 AM 3.2 °F - 1.4 °F 92% 30.15 in 5.0 mi Calm Calm - N/A   Clear
5:36 AM 3.2 °F - 1.4 °F 92% 30.15 in 7.0 mi Calm Calm - N/A   Clear
5:56 AM 6.8 °F - 5.0 °F 92% 30.14 in 5.0 mi Calm Calm - N/A Snow Light Snow
6:16 AM 3.2 °F - -0.4 °F 85% 30.14 in 0.5 mi Calm Calm - N/A Snow Light Snow
6:36 AM 3.2 °F - 1.4 °F 92% 30.15 in 5.0 mi Calm Calm - N/A Snow Light Snow
6:56 AM 5.0 °F - 3.2 °F 92% 30.16 in 10.0 mi Calm Calm - N/A   Clear
7:16 AM 5.0 °F - 3.2 °F 92% 30.16 in 10.0 mi Calm Calm - N/A   Clear
7:36 AM 5.0 °F - 1.4 °F 85% 30.16 in 5.0 mi Calm Calm - N/A   Clear
7:56 AM 6.8 °F - 5.0 °F 92% 30.16 in 10.0 mi Calm Calm - N/A   Clear
8:16 AM 8.6 °F - 6.8 °F 92% 30.16 in 10.0 mi Calm Calm - N/A   Clear
8:36 AM - - - N/A% 30.16 in 10.0 mi Calm Calm - N/A   Clear
8:56 AM - - - N/A% 30.15 in 10.0 mi Calm Calm - N/A   Clear
9:16 AM 19.4 °F - 14.0 °F 80% 30.15 in 10.0 mi Calm Calm - N/A   Clear
9:36 AM 19.4 °F - 12.2 °F 74% 30.14 in 10.0 mi Calm Calm - N/A   Clear
9:56 AM 23.0 °F 18.4 °F 10.4 °F 59% 30.14 in 10.0 mi North 3.5 mph - N/A   Clear
10:16 AM 23.0 °F 15.8 °F 12.2 °F 63% 30.14 in 10.0 mi ENE 5.8 mph - N/A   Clear
10:36 AM 23.0 °F 15.8 °F 12.2 °F 63% 30.14 in 10.0 mi NNW 5.8 mph - N/A   Clear
10:56 AM 19.4 °F 10.4 °F 10.4 °F 68% 30.14 in 10.0 mi North 6.9 mph - N/A   Clear
11:16 AM 19.4 °F 10.4 °F 10.4 °F 68% 30.14 in 10.0 mi NNW 6.9 mph - N/A   Clear
11:36 AM 19.4 °F 11.5 °F 8.6 °F 63% 30.13 in 10.0 mi North 5.8 mph - N/A   Clear
11:56 AM 21.2 °F 13.6 °F 10.4 °F 63% 30.12 in 10.0 mi North 5.8 mph - N/A   Clear
12:16 PM 24.8 °F 19.1 °F 10.4 °F 54% 30.10 in 10.0 mi NNW 4.6 mph - N/A   Clear
12:36 PM 26.6 °F 22.6 °F 10.4 °F 51% 30.09 in 10.0 mi NNW 3.5 mph - N/A   Clear
12:56 PM 26.6 °F - 12.2 °F 55% 30.09 in 10.0 mi Calm Calm - N/A   Clear
1:16 PM 26.6 °F - 12.2 °F 55% 30.07 in 10.0 mi Calm Calm - N/A   Clear
1:36 PM 26.6 °F - 12.2 °F 55% 30.05 in 10.0 mi Calm Calm - N/A   Clear
1:56 PM 28.4 °F - 14.0 °F 55% 30.04 in 10.0 mi Calm Calm - N/A   Clear
2:16 PM 28.4 °F 22.2 °F 15.8 °F 59% 30.03 in 10.0 mi East 5.8 mph - N/A   Clear
2:36 PM 28.4 °F 24.6 °F 15.8 °F 59% 30.03 in 10.0 mi ESE 3.5 mph - N/A   Clear
2:56 PM 26.6 °F 20.0 °F 14.0 °F 59% 30.02 in 10.0 mi ENE 5.8 mph - N/A   Clear
3:16 PM 24.8 °F 19.1 °F 14.0 °F 64% 30.01 in 10.0 mi NE 4.6 mph - N/A   Clear
3:36 PM 23.0 °F 15.8 °F 15.8 °F 74% 30.01 in 10.0 mi North 5.8 mph - N/A   Clear
3:56 PM 23.0 °F 18.4 °F 14.0 °F 68% 30.01 in 10.0 mi North 3.5 mph - N/A   Clear
4:16 PM 21.2 °F - 14.0 °F 74% 30.00 in 10.0 mi Calm Calm - N/A   Clear
4:36 PM 19.4 °F 12.8 °F 12.2 °F 74% 30.00 in 10.0 mi North 4.6 mph - N/A   Clear
4:56 PM 17.6 °F 10.7 °F 12.2 °F 79% 30.01 in 10.0 mi North 4.6 mph - N/A   Clear
5:16 PM 17.6 °F - 12.2 °F 79% 30.01 in 10.0 mi Calm Calm - N/A   Clear
5:36 PM 17.6 °F - 14.0 °F 86% 30.01 in 10.0 mi Calm Calm - N/A   Clear
5:56 PM 17.6 °F - 12.2 °F 79% 30.02 in 10.0 mi Calm Calm - N/A   Clear
6:16 PM 15.8 °F - 12.2 °F 86% 30.02 in 10.0 mi Calm Calm - N/A   Clear
6:36 PM 14.0 °F 6.5 °F 10.4 °F 86% 30.03 in 7.0 mi NE 4.6 mph - N/A   Clear
6:56 PM 14.0 °F - 12.2 °F 93% 30.03 in 7.0 mi Calm Calm - N/A   Clear
7:16 PM 14.0 °F - 12.2 °F 93% 30.03 in 7.0 mi Calm Calm - N/A   Clear
7:36 PM 14.0 °F 8.2 °F 12.2 °F 93% 30.02 in 10.0 mi ESE 3.5 mph - N/A   Clear
7:56 PM 14.0 °F 6.5 °F 12.2 °F 93% 30.02 in 7.0 mi ESE 4.6 mph - N/A   Clear
8:16 PM 14.0 °F 5.1 °F 10.4 °F 86% 30.03 in 10.0 mi ENE 5.8 mph - N/A   Clear
8:36 PM 12.2 °F - 10.4 °F 92% 30.03 in 7.0 mi Calm Calm - N/A   Clear
8:56 PM 12.2 °F 6.1 °F 10.4 °F 92% 30.02 in 7.0 mi SE 3.5 mph - N/A   Clear
9:16 PM 12.2 °F 6.1 °F 10.4 °F 92% 30.01 in 7.0 mi SE 3.5 mph - N/A   Clear
9:36 PM 12.2 °F - 10.4 °F 92% 30.01 in 7.0 mi Calm Calm - N/A   Clear
9:56 PM 12.2 °F 6.1 °F 10.4 °F 92% 30.00 in 7.0 mi NNE 3.5 mph - N/A   Clear
10:16 PM 12.2 °F -0.2 °F 10.4 °F 92% 29.99 in 7.0 mi NE 9.2 mph - N/A   Clear
10:36 PM 12.2 °F 0.7 °F 8.6 °F 85% 29.99 in 10.0 mi NE 8.1 mph - N/A   Clear
10:56 PM 10.4 °F 2.2 °F 8.6 °F 92% 29.99 in 7.0 mi NE 4.6 mph - N/A   Clear
11:16 PM 10.4 °F 0.8 °F 8.6 °F 92% 29.98 in 7.0 mi NE 5.8 mph - N/A   Clear
11:36 PM 12.2 °F 2.9 °F 10.4 °F 92% 29.96 in 10.0 mi East 5.8 mph - N/A   Clear
11:56 PM 14.0 °F 6.5 °F 8.6 °F 79% 29.97 in 10.0 mi NNE 4.6 mph - N/A   Clear